QPF
0.02 0.02 0.02 0.02 0.04 0.04 0.03 0.03 0.03 0.02 0.02 0.02 0.02 0.01 0.01 0.01 0.00 0.01 0.01 0.00 0.00 0.00 0.02 0.05 0.04 0.03 0.03 0.03 0.05 0.06 0.06 0.06 0.06 0.05 0.05 0.03 0.02 0.02
0.02 0.02 0.02 0.02 0.03 0.03 0.03 0.03 0.03 0.03 0.02 0.01 0.02 0.01 0.00 0.00 0.00 0.01 0.00 0.01 0.01 0.00 0.01 0.03 0.05 0.04 0.03 0.02 0.04 0.06 0.09 0.09 0.07 0.06 0.05 0.03 0.02 0.02
0.01 0.02 0.02 0.02 0.02 0.02 0.03 0.03 0.03 0.04 0.04 0.03 0.02 0.01 0.01 0.00 0.00 0.01 0.00 0.00 0.01 0.01 0.00 0.01 0.03 0.04 0.04 0.03 0.03 0.04 0.10 0.14 0.11 0.08 0.05 0.03 0.02 0.01
0.01 0.01 0.01 0.01 0.02 0.03 0.03 0.02 0.03 0.04 0.05 0.04 0.02 0.02 0.01 0.01 0.01 0.01 0.00 0.00 0.01 0.01 0.01 0.01 0.01 0.02 0.04 0.04 0.03 0.03 0.08 0.14 0.14 0.09 0.05 0.02 0.02 0.02
0.01 0.01 0.01 0.02 0.02 0.02 0.02 0.02 0.02 0.03 0.03 0.03 0.02 0.02 0.02 0.02 0.01 0.01 0.00 0.00 0.00 0.00 0.01 0.01 0.01 0.00 0.01 0.02 0.02 0.03 0.07 0.12 0.12 0.06 0.03 0.01 0.01 0.01
0.01 0.01 0.01 0.01 0.01 0.01 0.01 0.02 0.02 0.03 0.03 0.04 0.03 0.03 0.03 0.02 0.01 0.01 0.01 0.01 0.01 0.01 0.01 0.01 0.01 0.00 0.00 0.01 0.01 0.02 0.05 0.08 0.08 0.04 0.02 0.01 0.01 0.01
0.01 0.01 0.01 0.02 0.02 0.02 0.01 0.02 0.01 0.02 0.03 0.03 0.03 0.02 0.01 0.02 0.02 0.02 0.02 0.02 0.01 0.01 0.01 0.01 0.01 0.00 0.00 0.01 0.01 0.02 0.02 0.03 0.04 0.03 0.02 0.02 0.01 0.01
0.03 0.02 0.02 0.02 0.03 0.02 0.02 0.03 0.02 0.02 0.02 0.02 0.02 0.01 0.01 0.01 0.01 0.01 0.02 0.02 0.02 0.01 0.01 0.01 0.01 0.01 0.01 0.01 0.01 0.02 0.02 0.02 0.02 0.02 0.03 0.02 0.02 0.01
0.03 0.03 0.03 0.03 0.03 0.02 0.02 0.03 0.02 0.02 0.02 0.02 0.01 0.01 0.02 0.01 0.01 0.01 0.01 0.01 0.02 0.02 0.01 0.02 0.01 0.02 0.02 0.02 0.02 0.02 0.02 0.02 0.02 0.02 0.02 0.03 0.02 0.02
0.02 0.02 0.04 0.04 0.03 0.02 0.02 0.02 0.02 0.02 0.02 0.02 0.01 0.02 0.02 0.01 0.01 0.01 0.01 0.01 0.01 0.02 0.01 0.02 0.02 0.02 0.03 0.03 0.03 0.03 0.02 0.02 0.02 0.02 0.02 0.02 0.02 0.02
0.01 0.01 0.02 0.03 0.03 0.02 0.02 0.02 0.02 0.03 0.03 0.03 0.02 0.03 0.03 0.02 0.01 0.01 0.01 0.01 0.02 0.03 0.01 0.02 0.02 0.03 0.03 0.03 0.03 0.03 0.02 0.02 0.02 0.02 0.02 0.02 0.02 0.02
0.01 0.02 0.03 0.03 0.02 0.02 0.01 0.01 0.01 0.02 0.02 0.02 0.03 0.03 0.03 0.03 0.02 0.01 0.02 0.02 0.03 0.03 0.02 0.02 0.02 0.02 0.03 0.03 0.03 0.03 0.02 0.02 0.02 0.02 0.02 0.02 0.02 0.02
0.01 0.02 0.03 0.04 0.03 0.02 0.02 0.01 0.01 0.01 0.02 0.02 0.02 0.02 0.03 0.03 0.03 0.02 0.02 0.03 0.04 0.05 0.04 0.03 0.03 0.02 0.02 0.03 0.03 0.03 0.02 0.02 0.02 0.02 0.02 0.02 0.02 0.02
0.01 0.01 0.02 0.03 0.03 0.02 0.02 0.02 0.02 0.02 0.02 0.02 0.02 0.03 0.03 0.03 0.02 0.02 0.02 0.02 0.03 0.04 0.04 0.04 0.04 0.04 0.03 0.03 0.03 0.03 0.02 0.02 0.02 0.02 0.02 0.02 0.02 0.02
0.01 0.02 0.02 0.03 0.02 0.02 0.02 0.02 0.02 0.02 0.02 0.02 0.01 0.02 0.03 0.03 0.03 0.03 0.03 0.02 0.02 0.03 0.03 0.03 0.03 0.03 0.03 0.03 0.03 0.03 0.02 0.02 0.02 0.02 0.02 0.02 0.02 0.02
0.01 0.01 0.01 0.02 0.02 0.02 0.02 0.02 0.01 0.01 0.01 0.02 0.02 0.01 0.01 0.02 0.03 0.03 0.04 0.03 0.02 0.02 0.02 0.02 0.03 0.03 0.03 0.03 0.04 0.04 0.03 0.03 0.02 0.02 0.01 0.01 0.01 0.01
0.01 0.01 0.01 0.01 0.01 0.01 0.01 0.01 0.01 0.01 0.01 0.02 0.03 0.03 0.02 0.01 0.01 0.02 0.02 0.03 0.02 0.02 0.02 0.02 0.02 0.03 0.04 0.05 0.05 0.06 0.06 0.05 0.03 0.02 0.02 0.02 0.01 0.01
0.02 0.01 0.01 0.02 0.02 0.02 0.01 0.01 0.01 0.01 0.01 0.02 0.03 0.04 0.04 0.04 0.03 0.02 0.02 0.02 0.02 0.02 0.01 0.01 0.02 0.02 0.04 0.05 0.05 0.06 0.06 0.05 0.04 0.03 0.02 0.02 0.02 0.01
0.01 0.01 0.02 0.03 0.02 0.02 0.02 0.01 0.01 0.01 0.01 0.01 0.02 0.03 0.04 0.04 0.04 0.03 0.03 0.02 0.02 0.01 0.01 0.01 0.01 0.01 0.02 0.02 0.03 0.04 0.05 0.05 0.04 0.03 0.02 0.02 0.02 0.02
0.02 0.02 0.02 0.02 0.03 0.03 0.03 0.03 0.02 0.02 0.02 0.02 0.02 0.02 0.04 0.04 0.04 0.04 0.03 0.02 0.02 0.01 0.01 0.01 0.01 0.01 0.01 0.01 0.01 0.01 0.02 0.03 0.04 0.04 0.02 0.02 0.02 0.02
0.02 0.03 0.03 0.03 0.02 0.02 0.02 0.03 0.03 0.03 0.03 0.02 0.02 0.02 0.02 0.03 0.04 0.04 0.04 0.03 0.03 0.02 0.02 0.02 0.02 0.02 0.02 0.02 0.01 0.01 0.01 0.01 0.02 0.03 0.03 0.02 0.02 0.02
0.03 0.03 0.03 0.02 0.02 0.03 0.03 0.03 0.03 0.03 0.04 0.03 0.03 0.02 0.03 0.03 0.03 0.03 0.04 0.04 0.04 0.04 0.04 0.03 0.03 0.04 0.05 0.05 0.04 0.04 0.03 0.02 0.02 0.02 0.02 0.02 0.02 0.02
0.02 0.02 0.02 0.03 0.03 0.03 0.04 0.04 0.05 0.04 0.04 0.03 0.03 0.03 0.03 0.03 0.04 0.04 0.04 0.04 0.04 0.04 0.04 0.04 0.03 0.03 0.03 0.04 0.04 0.05 0.05 0.04 0.03 0.03 0.03 0.03 0.02 0.02
MSLP
1023.31 1023.56 1023.81 1024.02 1024.17 1024.24 1024.24 1024.17 1024.06 1023.95 1023.87 1023.84 1023.87 1023.97 1024.12 1024.30 1024.48 1024.64 1024.74 1024.79 1024.76 1024.67 1024.51 1024.32 1024.09 1023.87 1023.66 1023.48 1023.34 1023.27 1023.25 1023.29 1023.37 1023.48 1023.58 1023.65 1023.66 1023.60
1023.61 1023.88 1024.13 1024.34 1024.48 1024.55 1024.53 1024.45 1024.33 1024.20 1024.09 1024.03 1024.04 1024.12 1024.25 1024.41 1024.58 1024.73 1024.83 1024.87 1024.84 1024.74 1024.57 1024.37 1024.13 1023.88 1023.65 1023.45 1023.30 1023.21 1023.18 1023.22 1023.30 1023.41 1023.53 1023.62 1023.66 1023.63
1023.85 1024.12 1024.36 1024.57 1024.71 1024.77 1024.76 1024.69 1024.58 1024.47 1024.37 1024.32 1024.32 1024.39 1024.50 1024.64 1024.78 1024.90 1024.97 1024.99 1024.94 1024.82 1024.65 1024.43 1024.18 1023.94 1023.70 1023.51 1023.36 1023.27 1023.24 1023.27 1023.35 1023.46 1023.57 1023.66 1023.71 1023.69
1024.02 1024.27 1024.50 1024.70 1024.84 1024.92 1024.94 1024.91 1024.85 1024.77 1024.72 1024.69 1024.71 1024.77 1024.87 1024.97 1025.08 1025.15 1025.18 1025.15 1025.06 1024.92 1024.73 1024.51 1024.27 1024.04 1023.82 1023.65 1023.52 1023.45 1023.43 1023.46 1023.54 1023.63 1023.73 1023.82 1023.85 1023.83
1024.11 1024.35 1024.57 1024.77 1024.92 1025.03 1025.10 1025.13 1025.13 1025.12 1025.12 1025.14 1025.19 1025.26 1025.33 1025.40 1025.45 1025.47 1025.44 1025.35 1025.22 1025.04 1024.83 1024.61 1024.39 1024.18 1024.00 1023.86 1023.77 1023.73 1023.74 1023.78 1023.86 1023.95 1024.03 1024.09 1024.12 1024.09
1024.18 1024.40 1024.62 1024.82 1025.00 1025.15 1025.27 1025.37 1025.45 1025.51 1025.58 1025.65 1025.72 1025.79 1025.84 1025.88 1025.87 1025.83 1025.73 1025.59 1025.40 1025.19 1024.97 1024.74 1024.54 1024.37 1024.23 1024.14 1024.09 1024.09 1024.13 1024.19 1024.27 1024.36 1024.43 1024.47 1024.48 1024.43
1024.26 1024.47 1024.70 1024.92 1025.13 1025.32 1025.50 1025.66 1025.80 1025.93 1026.05 1026.16 1026.25 1026.32 1026.35 1026.35 1026.30 1026.19 1026.04 1025.84 1025.62 1025.38 1025.14 1024.92 1024.74 1024.60 1024.50 1024.45 1024.45 1024.49 1024.55 1024.64 1024.73 1024.81 1024.87 1024.90 1024.89 1024.83
1024.36 1024.59 1024.83 1025.08 1025.32 1025.56 1025.79 1026.00 1026.19 1026.36 1026.51 1026.64 1026.73 1026.79 1026.81 1026.77 1026.68 1026.53 1026.34 1026.11 1025.86 1025.61 1025.37 1025.16 1025.00 1024.88 1024.81 1024.80 1024.83 1024.89 1024.97 1025.07 1025.16 1025.24 1025.30 1025.32 1025.30 1025.23
1024.49 1024.76 1025.04 1025.32 1025.60 1025.87 1026.13 1026.36 1026.58 1026.77 1026.92 1027.05 1027.13 1027.17 1027.17 1027.10 1026.99 1026.83 1026.62 1026.38 1026.13 1025.89 1025.66 1025.46 1025.31 1025.21 1025.16 1025.16 1025.20 1025.26 1025.35 1025.44 1025.53 1025.60 1025.65 1025.66 1025.64 1025.57
1024.64 1024.96 1025.29 1025.61 1025.92 1026.21 1026.49 1026.73 1026.94 1027.12 1027.26 1027.36 1027.42 1027.44 1027.42 1027.35 1027.23 1027.07 1026.88 1026.66 1026.43 1026.20 1026.00 1025.82 1025.68 1025.58 1025.53 1025.52 1025.55 1025.60 1025.67 1025.74 1025.81 1025.86 1025.89 1025.90 1025.87 1025.81
1024.76 1025.15 1025.53 1025.90 1026.24 1026.55 1026.83 1027.07 1027.26 1027.41 1027.51 1027.58 1027.62 1027.61 1027.58 1027.51 1027.40 1027.27 1027.11 1026.93 1026.74 1026.55 1026.37 1026.21 1026.09 1025.99 1025.92 1025.89 1025.88 1025.89 1025.92 1025.96 1025.99 1026.02 1026.04 1026.03 1026.01 1025.95
1024.81 1025.27 1025.71 1026.13 1026.50 1026.83 1027.11 1027.33 1027.50 1027.62 1027.69 1027.72 1027.73 1027.71 1027.67 1027.61 1027.53 1027.43 1027.32 1027.19 1027.06 1026.91 1026.77 1026.63 1026.50 1026.39 1026.30 1026.23 1026.18 1026.15 1026.13 1026.12 1026.11 1026.11 1026.10 1026.09 1026.06 1026.02
1024.77 1025.30 1025.80 1026.26 1026.67 1027.02 1027.30 1027.51 1027.66 1027.75 1027.80 1027.81 1027.79 1027.76 1027.73 1027.69 1027.64 1027.58 1027.52 1027.45 1027.36 1027.26 1027.15 1027.03 1026.90 1026.78 1026.67 1026.56 1026.46 1026.38 1026.30 1026.25 1026.20 1026.17 1026.14 1026.12 1026.09 1026.07
1024.62 1025.20 1025.76 1026.26 1026.71 1027.08 1027.37 1027.59 1027.73 1027.81 1027.85 1027.85 1027.83 1027.80 1027.78 1027.75 1027.74 1027.72 1027.70 1027.68 1027.63 1027.57 1027.49 1027.38 1027.27 1027.14 1027.00 1026.86 1026.72 1026.59 1026.47 1026.38 1026.30 1026.23 1026.19 1026.16 1026.15 1026.13
1024.36 1024.98 1025.58 1026.12 1026.60 1027.00 1027.31 1027.54 1027.70 1027.80 1027.84 1027.85 1027.84 1027.83 1027.82 1027.82 1027.83 1027.85 1027.86 1027.87 1027.86 1027.83 1027.77 1027.68 1027.57 1027.44 1027.29 1027.13 1026.96 1026.80 1026.66 1026.53 1026.42 1026.34 1026.29 1026.26 1026.26 1026.26
1024.00 1024.65 1025.26 1025.83 1026.33 1026.76 1027.10 1027.37 1027.56 1027.68 1027.76 1027.80 1027.82 1027.83 1027.85 1027.88 1027.91 1027.95 1027.99 1028.02 1028.03 1028.02 1027.98 1027.91 1027.81 1027.69 1027.54 1027.37 1027.19 1027.02 1026.86 1026.72 1026.60 1026.51 1026.45 1026.43 1026.43 1026.45
1023.55 1024.20 1024.82 1025.40 1025.92 1026.37 1026.74 1027.05 1027.28 1027.46 1027.58 1027.67 1027.73 1027.79 1027.84 1027.89 1027.95 1028.01 1028.07 1028.12 1028.15 1028.16 1028.14 1028.08 1028.00 1027.89 1027.74 1027.59 1027.41 1027.24 1027.07 1026.93 1026.80 1026.71 1026.65 1026.63 1026.65 1026.68
1023.02 1023.65 1024.26 1024.82 1025.35 1025.81 1026.22 1026.57 1026.86 1027.09 1027.28 1027.43 1027.55 1027.66 1027.75 1027.84 1027.93 1028.02 1028.09 1028.16 1028.21 1028.24 1028.24 1028.20 1028.14 1028.05 1027.92 1027.78 1027.61 1027.45 1027.28 1027.13 1027.01 1026.91 1026.86 1026.84 1026.86 1026.90
1022.41 1023.00 1023.58 1024.12 1024.64 1025.12 1025.55 1025.94 1026.28 1026.58 1026.84 1027.06 1027.25 1027.42 1027.57 1027.71 1027.84 1027.96 1028.06 1028.15 1028.23 1028.28 1028.30 1028.29 1028.25 1028.18 1028.07 1027.94 1027.78 1027.61 1027.45 1027.30 1027.16 1027.06 1027.01 1026.99 1027.01 1027.07
1021.70 1022.26 1022.79 1023.31 1023.81 1024.29 1024.74 1025.17 1025.56 1025.93 1026.26 1026.56 1026.83 1027.07 1027.29 1027.49 1027.67 1027.84 1027.98 1028.11 1028.21 1028.29 1028.34 1028.35 1028.33 1028.28 1028.18 1028.05 1027.90 1027.72 1027.55 1027.38 1027.23 1027.12 1027.05 1027.03 1027.05 1027.11
1020.92 1021.42 1021.91 1022.40 1022.89 1023.36 1023.83 1024.29 1024.74 1025.16 1025.57 1025.95 1026.30 1026.63 1026.93 1027.20 1027.44 1027.66 1027.86 1028.03 1028.17 1028.28 1028.36 1028.39 1028.39 1028.34 1028.24 1028.10 1027.94 1027.74 1027.54 1027.35 1027.18 1027.05 1026.97 1026.93 1026.95 1027.00
1020.04 1020.51 1020.97 1021.43 1021.90 1022.38 1022.86 1023.35 1023.85 1024.34 1024.82 1025.28 1025.72 1026.13 1026.50 1026.85 1027.17 1027.45 1027.70 1027.92 1028.10 1028.25 1028.35 1028.40 1028.40 1028.34 1028.23 1028.08 1027.88 1027.66 1027.42 1027.20 1027.00 1026.84 1026.73 1026.69 1026.69 1026.75
1019.10 1019.54 1019.98 1020.43 1020.89 1021.38 1021.88 1022.41 1022.95 1023.50 1024.05 1024.58 1025.10 1025.59 1026.05 1026.47 1026.86 1027.21 1027.52 1027.79 1028.01 1028.18 1028.30 1028.35 1028.35 1028.28 1028.14 1027.96 1027.73 1027.46 1027.19 1026.93 1026.70 1026.51 1026.38 1026.32 1026.32 1026.37
Thickness
5671 5670 5669 5669 5668 5667 5667 5666 5664 5661 5660 5660 5660 5660 5659 5657 5655 5656 5656 5654 5654 5654 5654 5654 5654 5654 5654 5654 5653 5652 5651 5650 5649 5648 5647 5645 5644 5642
5666 5666 5666 5666 5665 5664 5664 5663 5663 5662 5659 5659 5657 5657 5655 5654 5652 5653 5652 5651 5650 5650 5650 5650 5650 5649 5649 5649 5648 5647 5646 5645 5644 5642 5641 5639 5638 5637
5664 5664 5662 5662 5661 5661 5660 5660 5660 5659 5655 5655 5655 5654 5652 5651 5649 5649 5649 5649 5648 5646 5646 5645 5645 5645 5644 5643 5643 5642 5640 5639 5638 5637 5636 5634 5632 5631
5660 5660 5659 5658 5657 5657 5656 5656 5656 5656 5654 5651 5651 5650 5649 5648 5647 5646 5646 5646 5646 5643 5642 5641 5640 5640 5639 5638 5637 5636 5635 5634 5633 5632 5630 5629 5627 5626
5656 5656 5656 5655 5654 5654 5653 5653 5652 5652 5650 5649 5647 5646 5645 5644 5643 5643 5643 5642 5642 5640 5638 5637 5636 5635 5634 5633 5632 5631 5630 5629 5627 5626 5624 5623 5621 5620
5651 5651 5652 5651 5651 5651 5650 5650 5649 5647 5646 5645 5644 5642 5641 5640 5640 5639 5639 5639 5638 5637 5635 5634 5632 5631 5630 5629 5628 5626 5625 5623 5621 5620 5618 5617 5615 5614
5645 5646 5646 5645 5644 5644 5645 5645 5644 5643 5642 5641 5640 5639 5638 5636 5636 5636 5635 5635 5635 5634 5633 5632 5631 5629 5628 5625 5623 5622 5620 5618 5616 5614 5612 5610 5609 5608
5640 5640 5640 5639 5637 5636 5636 5636 5637 5639 5639 5637 5636 5636 5635 5634 5633 5632 5632 5631 5630 5631 5629 5629 5628 5626 5625 5623 5620 5617 5615 5613 5610 5608 5606 5605 5604 5602
5635 5635 5635 5634 5633 5634 5632 5630 5630 5630 5630 5633 5633 5633 5631 5631 5629 5628 5628 5627 5626 5626 5624 5624 5623 5622 5621 5618 5615 5612 5610 5607 5605 5603 5601 5599 5597 5596
5629 5630 5630 5630 5628 5628 5628 5628 5628 5627 5625 5626 5627 5627 5626 5624 5624 5624 5623 5622 5622 5619 5618 5618 5618 5617 5616 5614 5610 5607 5604 5602 5599 5597 5595 5593 5591 5589
5623 5624 5624 5624 5621 5620 5622 5623 5622 5620 5618 5617 5617 5617 5616 5615 5615 5615 5615 5615 5615 5614 5612 5611 5611 5610 5610 5608 5605 5602 5599 5596 5594 5591 5589 5586 5584 5582
5617 5617 5615 5615 5613 5612 5615 5616 5615 5614 5613 5612 5610 5610 5610 5609 5607 5608 5608 5608 5609 5607 5606 5604 5604 5603 5602 5603 5600 5597 5594 5591 5588 5585 5582 5580 5577 5575
5609 5610 5610 5606 5605 5605 5606 5609 5608 5606 5606 5606 5606 5606 5605 5604 5603 5602 5601 5600 5601 5601 5599 5596 5596 5595 5595 5594 5593 5591 5588 5586 5583 5580 5577 5573 5570 5568
5601 5602 5602 5598 5597 5597 5597 5598 5597 5596 5598 5599 5599 5598 5598 5597 5596 5595 5593 5592 5591 5591 5589 5588 5587 5586 5586 5585 5585 5583 5581 5579 5577 5574 5572 5568 5564 5562
5592 5592 5590 5589 5589 5590 5589 5588 5588 5589 5591 5591 5591 5591 5590 5589 5587 5585 5584 5583 5582 5581 5580 5578 5577 5577 5576 5576 5577 5575 5573 5571 5569 5567 5565 5563 5560 5557
5582 5581 5580 5579 5580 5580 5580 5580 5581 5582 5582 5582 5582 5582 5580 5578 5577 5576 5574 5572 5571 5571 5570 5568 5567 5566 5565 5565 5565 5564 5563 5562 5561 5559 5557 5555 5553 5552
5573 5573 5573 5573 5572 5573 5573 5573 5572 5572 5571 5570 5570 5570 5569 5568 5567 5566 5564 5562 5561 5561 5560 5558 5556 5554 5553 5554 5554 5554 5554 5553 5551 5550 5548 5547 5546 5544
5563 5565 5565 5565 5564 5564 5563 5562 5562 5561 5561 5560 5559 5559 5558 5557 5556 5554 5553 5553 5552 5552 5551 5549 5546 5544 5543 5544 5543 5545 5545 5544 5542 5540 5539 5538 5539 5537
5554 5556 5556 5555 5555 5554 5553 5552 5552 5551 5550 5550 5549 5548 5547 5546 5545 5544 5543 5543 5542 5542 5541 5539 5537 5536 5537 5538 5538 5533 5534 5535 5533 5532 5530 5530 5531 5530
5546 5546 5546 5545 5544 5543 5542 5542 5541 5540 5539 5539 5539 5538 5537 5536 5535 5534 5533 5532 5532 5532 5531 5530 5529 5528 5529 5529 5529 5527 5523 5524 5525 5525 5524 5522 5522 5520
5537 5537 5536 5535 5534 5533 5533 5532 5531 5530 5529 5528 5528 5527 5527 5526 5525 5524 5524 5522 5521 5521 5521 5521 5520 5517 5517 5517 5518 5519 5517 5514 5514 5514 5515 5514 5514 5514
5528 5527 5526 5525 5523 5522 5521 5521 5520 5519 5518 5517 5517 5517 5516 5516 5515 5515 5514 5513 5512 5512 5511 5510 5509 5507 5508 5509 5511 5511 5510 5507 5504 5503 5502 5502 5503 5505
5519 5518 5516 5514 5513 5512 5511 5510 5509 5508 5508 5507 5506 5505 5505 5505 5505 5504 5504 5503 5503 5502 5501 5500 5500 5499 5499 5500 5501 5502 5501 5499 5498 5497 5496 5493 5491 5491